Regional Weather Roundup
Issued by NWS Sterling, VA

Home | Current Version | Previous Version | Graphics & Text | Print | Product List | Glossary On
Versions: 1 2 3 4 5 6 7 8 9 10 11 12 13 14 15 16 17 18 19 20 21 22 23 24 25 26 27 28 29 30 31 32 33 34 35 36 37 38 39 40 41 42 43 44 45 46 47 48 49 50
849
ASUS41 KLWX 110310
RWRLWX

REGIONAL WEATHER ROUNDUP
NATIONAL WEATHER SERVICE BALTIMORE MD/WASHINGTON DC
1000 PM EST WED FEB 10 2016

Note: "FAIR" indicates few or no clouds below 12,000 feet
with no significant weather and/or obstructions to visibility.
 TC=TEMPERATURE CELSIUS

 * =Non NWS site. Station does not report precipitation (e.g. rain,
    snow, etc.), thunder, or fog.

DCZ001-MDZ009-015-VAZ040>042-051-053>054-110400-
WASHINGTON METRO

CITY           SKY/WX    TMP DP  RH WIND       PRES   REMARKS
WASHINGTON NAT CLOUDY    27  10  49 NW15G22   29.95R WCI  15
DULLES         MOCLDY    24  10  55 W17       29.93S WCI  11
ANDREWS AFB    CLOUDY    26   9  49 NW17G26   29.91R WCI  13
FT BELVOIR     MOCLDY    27   8  46 NW15      29.95  WCI  15
QUANTICO       MOCLDY    28   8  43 NW13G20   29.98R WCI  17
COLLEGE PARK*  CLOUDY    28  12  50 W13G21    29.94R WCI  18
LEESBURG*      FAIR      27  14  59 W13G24    29.93S WCI  16
MANASSAS*      MOCLDY    25  12  58 NW8       29.95R WCI  16
GAITHERSBURG*  PTCLDY    21   9  58 W10G21    29.94R WCI  10

$$

MDZ006>007-011-014-110400-
BALTIMORE METRO

CITY           SKY/WX    TMP DP  RH WIND       PRES   REMARKS
BWI AIRPORT    CLOUDY    25  11  55 NW17G25   29.91R WCI  12
MD SCIENCE CTR   N/A     26  11  52 MISG      29.90R
MARTIN STATE   CLOUDY    28  16  59 W16G24    29.92R WCI  17
ANNAPOLIS      CLOUDY    28  12  51 W13G20    29.92R WCI  17
FORT MEADE*    CLOUDY    27  12  54 W9G18     29.94R WCI  17

$$

MDZ012-015-019>023-110400-
MARYLAND EASTERN SHORE

CITY           SKY/WX    TMP DP  RH WIND       PRES   REMARKS
OCEAN CITY     FLURRIES  31  22  69 NW8       29.86R WCI  23
SALISBURY      CLOUDY    30  17  58 W14       29.88R WCI  19
BAY BRIDGE AP*   N/A     28  12  50 W18G26    29.92R WCI  16
CAMBRIDGE*     CLOUDY    28  14  54 W15G22    29.91R WCI  17
EASTON*          N/A     28  14  54 NW21G28   29.94R WCI  15

$$

MDZ017>025-110400-
SOUTHERN MARYLAND

CITY           SKY/WX    TMP DP  RH WIND       PRES   REMARKS
PATUXENT RIVER CLOUDY    28  14  55 NW17G29   29.93R WCI  16
ST INIGOES     CLOUDY    29  15  56 NW13G20   29.92R WCI  19
LEONARDTOWN*   CLOUDY    28  14  54 W14       29.94R WCI  17

$$

MDZ003>005-110400-
NORTH CENTRAL MARYLAND

CITY           SKY/WX    TMP DP  RH WIND       PRES   REMARKS
FREDERICK*     PTCLDY    23  14  68 W6        29.95S
HAGERSTOWN APT CLOUDY    22   9  57 W14       29.89R WCI   9
WESTMINSTER*   PTCLDY    21  16  79 W14       29.86R WCI   8

$$

MDZ501>502-110400-
WESTERN MARYLAND

CITY           SKY/WX    TMP DP  RH WIND       PRES   REMARKS
OAKLAND*       FOG        9   5  85 W13G22    29.76S VSB 1   WCI  -7
CUMBERLAND*    CLEAR     23   9  54 W9G25     29.97R WCI  13

$$

VAZ025>031-110400-
SHENANDOAH VALLEY

CITY           SKY/WX    TMP DP  RH WIND       PRES   REMARKS
WINCHESTER*    CLOUDY    25   9  50 W13       29.92R WCI  13
FRONT ROYAL*   CLOUDY    23   5  46 W10G18    29.93R WCI  12
LURAY*         FAIR      21   5  49 CALM      29.93R
NEW MARKET*    FAIR      21   3  45 W5        29.93S
STAUNTON*      FAIR      23   8  52 W5        29.96R
WAYNESBORO*    FAIR      18   2  50 W6        29.93R

$$

WVZ021-048>050-054>055-110400-
EASTERN WEST VIRGINIA PANHANDLE

CITY           SKY/WX    TMP DP  RH WIND       PRES   REMARKS
MARTINSBURG    CLOUDY    22   6  50 W14G26    29.92R WCI   9
PETERSBURG*    LGT SNOW  20  13  73 CALM      29.97R

$$

VAZ036>039-050-110400-
CENTRAL FOOTHILLS

CITY           SKY/WX    TMP DP  RH WIND       PRES   REMARKS
CHARLOTTESVILL FAIR      24   2  38 NW7       29.95R
CULPEPER*      CLOUDY    25   7  45 W10       29.96S WCI  15
ORANGE*        CLOUDY    28   5  37 W13       29.97R WCI  18
GORDONSVILLE*  FAIR      25   4  41 CALM      29.96R
WARRENTON*     FAIR      26  13  59 NW6       29.95R

$$

VAZ055>057-110400-
NORTH AND CENTRAL PIEDMONT

CITY           SKY/WX    TMP DP  RH WIND       PRES   REMARKS
FREDERICKSBRG* CLOUDY    27  11  51 NW6       29.96R
STAFFORD*      MOCLDY    25   8  48 W7        30.00R

$$

NCZ024-NYZ072-PAZ021-071-VAZ022-071-110400-
OTHER REGIONAL OBSERVATIONS

CITY           SKY/WX    TMP DP  RH WIND       PRES   REMARKS
NEW YORK CITY  MOCLDY    32  16  51 VRB3      29.76R
PHILADELPHIA   MOCLDY    31  11  43 W18G25    29.84R WCI  19
PITTSBURGH     LGT SNOW  16  11  80 W12G22    29.90R WCI   3
ROANOKE        CLOUDY    21   3  45 NW15G24   30.01R WCI   8
RICHMOND       CLOUDY    28   6  39 NW21      29.96R WCI  15
RALEIGH        PTCLDY    28   7  41 NW7       30.04R

$$

ANZ530>537-110400-
MARINE OBSERVATIONS

STATION/POSITION TIME  TEMP    WIND        PRES
                       AIR SEA DIR/SP/G
                 (UTC) (F)     (DEG/KT/KT) (MB)
THOMAS PT LIGHT  0300   27     300/ 21/ 23 1013.4R
BALT KEY BRIDGE  0200   27                   N/A
COVE POINT       0200   28                   N/A
LEWISETTA        0200   29 41                N/A
SOLOMONS ISLAND  0200   29 41                N/A
PINEY POINT      0200          330/ 23/ 25   N/A

$$





USA.gov is the U.S. government's official web portal to all federal, state and local government web resources and services.